Location: Asheville, NC
(35.6000°N, 82.5500°W)
Time: 03:42:18
(UTC-04:00)

STRAND 1 - Pass Details

Date: 05 January 2018
Orbit: 769 x 780 km, 98.5° (Epoch: 24 June)

Event Time Altitude Azimuth Distance (km) Brightness Sun altitude
Exits shadow 19:40:46 18° 161° (SSE) 1,804 ? -25.7°
Drops below altitude 10° 19:42:12 10° 169° (S) 2,313 ? -25.9°
Sets 19:44:38 0° 176° (S) 3,238 ? -26.4°
